#timestamp,LO_Frequency,Hit,StdDev 
1687942815.7,286047001.5,N
1687942835.6,286047001.4,N
1687942855.4,286047004.0,Y
1687942875.2,286047002.5,P
1687942895.1,286047002.5,P
1687942896.0,286047002.5,P
1687942915.8,286046999.8,N
1687942935.7,286047000.0,N
1687942955.5,286047000.1,N
1687942975.3,286046999.8,N
1687942995.2,286046999.7,N
1687943015.9,286046999.9,N
1687943035.7,286046999.9,N
1687943055.6,286047002.3,N
1687943075.4,286047000.3,N
1687943095.3,286047000.9,N
1687943115.1,286047000.4,N
1687943116.0,286047000.4,N
1687943135.8,286047000.6,N
1687943155.7,286046999.7,N
1687943175.5,286047000.0,N
1687943195.3,286046999.8,N
1687943215.2,286047000.0,N
1687943235.0,286047000.0,N
1687943235.9,286047000.0,N
1687943255.8,286047002.7,N
1687943275.6,286047002.2,N
1687943295.4,286047002.3,N
1687943315.3,286047002.5,N
1687943335.1,286047002.7,N
1687943355.8,286047002.5,N
1687943375.7,286047002.3,N
1687943395.5,286047002.3,N
1687943415.4,286047002.7,N
1687943435.2,286047002.6,N
1687943455.0,286047001.9,N
1687943455.9,286047001.9,N
1687943475.8,286047002.0,N
1687943495.6,286047001.6,N
1687943515.4,286047004.4,Y
1687943535.3,286047002.4,P
1687943555.1,286047002.3,P
1687943575.9,286047002.3,P
1687943595.7,286046999.8,N
1687943615.5,286047002.2,N
1687943635.4,286046999.7,N
1687943655.2,286047001.6,N
1687943675.0,286047002.3,N
1687943675.9,286047002.3,N
1687943695.8,286047002.6,N
1687943715.6,286047004.4,Y
1687943735.5,286047000.3,P
1687943755.3,286047001.2,N
1687943775.1,286047000.3,N
1687943795.9,286047000.7,N
1687943815.7,286047001.1,N
1687943835.5,286047001.2,N
1687943855.4,286046998.1,Y
1687943875.2,286046999.1,P
1687943895.1,286046999.2,N
1687943896.0,286046999.2,N
1687943915.8,286046996.9,Y
1687943935.6,286046999.0,P
1687943955.5,286046996.9,P
1687943975.3,286046999.6,N
1687943995.2,286046999.2,N
1687944015.9,286046999.2,N
1687944035.7,286046996.6,Y
1687944055.6,286047001.2,P
1687944075.4,286047000.1,N
1687944095.2,286046999.9,N
1687944115.1,286047011.9,Y
1687944116.0,286047000.6,P
1687944135.8,286046998.1,P
1687944155.7,286047000.5,N
1687944175.5,286047000.7,N
1687944195.3,286047001.2,N
1687944215.2,286047001.0,N
1687944235.0,286046999.8,N
1687944235.9,286046999.8,N
1687944255.8,286047001.0,N
1687944275.6,286046999.8,N
1687944295.4,286047000.5,N
1687944315.3,286047001.1,N
1687944335.1,286046998.6,N
1687944355.9,286047000.7,N
1687944375.7,286047001.0,N
1687944395.5,286047000.6,N
1687944415.4,286047000.9,N
1687944435.2,286047001.0,N
1687944455.0,286047000.9,N
1687944455.9,286047000.9,N
1687944475.8,286047000.9,N
1687944495.6,286047000.7,N
1687944515.5,286046999.4,N
1687944535.3,286046998.7,N
1687944555.1,286046998.1,N
1687944575.9,286046999.1,N
1687944595.7,286046998.3,N
1687944615.5,286047000.6,N
1687944635.4,286046998.1,N
1687944655.2,286047000.5,N
1687944675.1,286046999.9,N
1687944676.0,286046999.9,N
1687944695.8,286047002.7,N
1687944715.6,286047002.4,N
1687944735.5,286047002.4,N
1687944755.3,286047001.7,N
1687944775.1,286047004.4,Y
1687944795.9,286047004.2,P
1687944815.7,286047003.0,N
1687944835.6,286047001.9,N
1687944855.4,286047002.3,N
1687944875.2,286047002.0,N
1687944895.1,286046999.8,N
1687944896.0,286046999.8,N
1687944915.8,286047001.8,N
1687944935.7,286047002.6,N
1687944955.5,286047000.2,N
1687944975.3,286047000.5,N
1687944995.2,286046998.8,N
1687945015.9,286046999.2,N
1687945035.7,286046999.0,N
1687945055.6,286047002.3,N
1687945075.4,286047001.3,N
1687945095.2,286047001.8,N
1687945115.1,286047001.2,N
1687945116.0,286047001.2,N
1687945135.8,286046997.1,N
1687945155.7,286046997.6,N
1687945175.5,286046996.7,N
1687945195.3,286046998.8,N
1687945215.2,286046996.5,N
1687945235.0,286046996.5,N
1687945235.9,286046996.5,N
1687945255.8,286046998.0,N
1687945275.6,286046995.7,N
1687945295.4,286046994.2,N
1687945315.3,286046993.8,N
1687945335.1,286046993.8,N
1687945336.0,286046993.8,N
1687945355.8,286046994.0,N
1687945375.7,286046994.1,N
1687945395.5,286046993.8,N
1687945415.3,286046996.2,N
1687945435.2,286046993.7,N
1687945455.0,286046994.1,N
1687945455.9,286046994.1,N
1687945475.8,286046994.0,N
1687945495.6,286046994.8,N
1687945515.4,286046991.9,N
1687945535.3,286046992.9,N
1687945555.1,286046992.5,N
1687945575.8,286046991.7,N
1687945595.7,286046991.9,N
1687945615.5,286046991.8,Y
1687945635.4,286046998.3,P
1687945655.2,286046999.1,N
1687945675.0,286046996.7,N
1687945675.9,286046996.7,N
1687945695.8,286046998.6,N
1687945715.6,286047002.7,N
1687945735.5,286047000.0,N
1687945755.3,286047000.7,N
1687945775.2,286046996.8,N
1687945795.9,286046997.8,N
1687945815.7,286046995.3,N
1687945835.6,286046996.4,N
1687945855.4,286046996.9,N
1687945875.2,286046999.2,N
1687945895.1,286046998.8,N
1687945896.0,286046998.8,N
1687945915.8,286046998.7,N
1687945935.7,286047000.7,N
1687945955.5,286046998.7,N
1687945975.3,286046996.5,N
1687945995.2,286046997.5,N
1687946015.0,286046997.4,N
1687946015.9,286046997.4,N
1687946035.7,286046995.2,N
1687946055.6,286046996.8,N
1687946075.4,286046997.8,N
1687946095.3,286046997.1,N
1687946115.1,286046997.0,N
1687946116.0,286046997.0,N
1687946135.8,286046998.6,N
1687946155.7,286046999.0,N
1687946175.5,286046996.9,N
1687946195.3,286046997.7,N
1687946215.2,286046997.9,N
1687946235.0,286046995.3,N
1687946235.9,286046995.3,N
1687946255.8,286046995.0,Y
1687946275.6,286046999.1,P
1687946295.4,286047001.2,N
1687946315.3,286046998.5,N
1687946335.1,286046999.9,N
1687946355.9,286047002.7,N
1687946375.7,286046999.8,N
1687946395.5,286047000.5,N
